| time (UTC) | temp C | wind direction | speed KPH | gust KPH | rain 1hr cm | rain 24hr cm | rain mn cm | humidity % | barometer mb |
| 20260502190339 | 19 | 136 | 1.6 | 8.0 | 0.00 | 0.00 | 0.00 | 28 | -102.6 |
| 20260502185818 | 19 | 12 | 3.2 | 6.4 | 0.00 | 0.00 | 0.00 | 27 | -102.6 |
| 20260502185321 | 19 | 169 | 1.6 | 4.8 | 0.00 | 0.00 | 0.00 | 29 | -102.6 |
| 20260502184829 | 19 | 303 | 0.0 | 3.2 | 0.00 | 0.00 | 0.00 | 29 | -102.6 |
| 20260502184315 | 19 | 147 | 0.0 | 6.4 | 0.00 | 0.00 | 0.00 | 30 | -102.6 |
| 20260502183816 | 18 | 152 | 1.6 | 6.4 | 0.00 | 0.00 | 0.00 | 29 | -102.6 |
| 20260502183326 | 18 | 1 | 0.0 | 6.4 | 0.00 | 0.00 | 0.00 | 34 | -102.6 |
| 20260502182827 | 17 | 343 | 0.0 | 6.4 | 0.00 | 0.00 | 0.00 | 31 | -102.6 |
| 20260502182329 | 17 | 260 | 3.2 | 6.4 | 0.00 | 0.00 | 0.00 | 32 | -102.6 |
| 20260502181838 | 17 | 30 | 3.2 | 6.4 | 0.00 | 0.00 | 0.00 | 33 | -102.6 |
| 20260502181343 | 17 | 339 | 1.6 | 4.8 | 0.00 | 0.00 | 0.00 | 32 | -102.6 |
| 20260502180822 | 17 | 155 | 3.2 | 4.8 | 0.00 | 0.00 | 0.00 | 32 | -102.6 |
| 20260502180324 | 17 | 163 | 1.6 | 4.8 | 0.00 | 0.00 | 0.00 | 33 | -102.5 |
| 20260502170344 | 15 | 38 | 1.6 | 3.2 | 0.00 | 0.00 | 0.00 | 44 | -102.5 |
| 20260502164331 | 14 | 210 | 1.6 | 3.2 | 0.00 | 0.00 | 0.00 | 44 | -102.5 |
| 20260502163815 | 14 | 321 | 0.0 | 3.2 | 0.00 | 0.00 | 0.00 | 46 | -102.5 |
| 20260502163317 | 13 | 335 | 1.6 | 3.2 | 0.00 | 0.00 | 0.00 | 45 | -102.5 |
| 20260502162826 | 13 | 307 | 1.6 | 4.8 | 0.00 | 0.00 | 0.00 | 45 | -102.5 |
| 20260502162324 | 13 | 46 | 0.0 | 6.4 | 0.00 | 0.00 | 0.00 | 47 | -102.5 |
| 20260502161831 | 13 | 328 | 3.2 | 6.4 | 0.00 | 0.00 | 0.00 | 43 | -102.5 |
| 20260502161400 | 13 | 6 | 0.0 | 3.2 | 0.00 | 0.00 | 0.00 | 48 | -102.5 |
| 20260502160819 | 13 | 15 | 0.0 | 3.2 | 0.00 | 0.00 | 0.00 | 48 | -102.5 |
| 20260502160341 | 12 | 340 | 1.6 | 6.4 | 0.00 | 0.00 | 0.00 | 42 | -102.5 |
| 20260502152319 | 11 | 333 | 1.6 | 3.2 | 0.00 | 0.00 | 0.00 | 45 | -102.5 |
| 20260502151848 | 11 | 351 | 1.6 | 3.2 | 0.00 | 0.00 | 0.00 | 44 | -102.5 |
| 20260502151336 | 11 | 271 | 0.0 | 4.8 | 0.00 | 0.00 | 0.00 | 44 | -102.5 |
| 20260502150817 | 11 | 319 | 1.6 | 4.8 | 0.00 | 0.00 | 0.00 | 45 | -102.5 |
| 20260502150341 | 11 | 301 | 0.0 | 1.6 | 0.00 | 0.00 | 0.00 | 45 | -102.5 |
| 20260502130316 | 6 | 273 | 0.0 | 1.6 | 0.00 | 0.00 | 0.00 | 50 | -102.6 |
| 20260502123816 | 9 | 102 | 0.0 | 8.0 | 0.00 | 0.00 | 0.00 | 37 | -102.6 |
| 20260502123325 | 9 | 148 | 4.8 | 8.0 | 0.00 | 0.00 | 0.00 | 36 | -102.6 |
| 20260502122854 | 9 | 147 | 3.2 | 9.7 | 0.00 | 0.00 | 0.00 | 37 | -102.6 |
| 20260502122315 | 8 | 122 | 4.8 | 9.7 | 0.00 | 0.00 | 0.00 | 38 | -102.6 |
| 20260502121815 | 8 | 146 | 6.4 | 8.0 | 0.00 | 0.00 | 0.00 | 39 | -102.6 |
| 20260502121324 | 8 | 137 | 4.8 | 11.3 | 0.00 | 0.00 | 0.00 | 40 | -102.6 |
| 20260502120825 | 8 | 128 | 4.8 | 11.3 | 0.00 | 0.00 | 0.00 | 40 | -102.6 |
| 20260502120336 | 8 | 134 | 4.8 | 9.7 | 0.00 | 0.00 | 0.00 | 39 | -102.6 |
| 20260502115813 | 8 | 152 | 3.2 | 9.7 | 0.00 | 0.00 | 0.00 | 39 | -102.6 |
| 20260502115323 | 8 | 136 | 4.8 | 9.7 | 0.00 | 0.00 | 0.00 | 41 | -102.6 |
| 20260502114824 | 8 | 128 | 3.2 | 8.0 | 0.00 | 0.00 | 0.00 | 42 | -102.6 |
| 20260502114333 | 8 | 145 | 3.2 | 4.8 | 0.00 | 0.00 | 0.00 | 41 | -102.6 |
| 20260502113814 | 7 | 147 | 1.6 | 4.8 | 0.00 | 0.00 | 0.00 | 43 | -102.6 |
| 20260502113316 | 7 | 129 | 1.6 | 6.4 | 0.00 | 0.00 | 0.00 | 45 | -102.6 |
| 20260502112821 | 7 | 102 | 3.2 | 8.0 | 0.00 | 0.00 | 0.00 | 44 | -102.6 |
| 20260502112323 | 7 | 150 | 3.2 | 4.8 | 0.00 | 0.00 | 0.00 | 42 | -102.6 |
| 20260502111824 | 7 | 141 | 0.0 | 4.8 | 0.00 | 0.00 | 0.00 | 46 | -102.6 |
| 20260502111334 | 6 | 155 | 1.6 | 4.8 | 0.00 | 0.00 | 0.00 | 49 | -102.6 |
| 20260502110814 | 6 | 138 | 0.0 | 1.6 | 0.00 | 0.00 | 0.00 | 58 | -102.6 |
| 20260502110316 | 6 | 139 | 0.0 | 1.6 | 0.00 | 0.00 | 0.00 | 57 | -102.6 |
| 20260502105825 | 6 | 139 | 0.0 | 1.6 | 0.00 | 0.00 | 0.00 | 56 | -102.6 |
| 20260502105327 | 7 | 139 | 0.0 | 1.6 | 0.00 | 0.00 | 0.00 | 51 | -102.6 |
| 20260502104835 | 7 | 137 | 0.0 | 1.6 | 0.00 | 0.00 | 0.00 | 48 | -102.6 |
| 20260502104318 | 8 | 138 | 0.0 | 3.2 | 0.00 | 0.00 | 0.00 | 41 | -102.6 |
| 20260502103820 | 9 | 138 | 0.0 | 3.2 | 0.00 | 0.00 | 0.00 | 38 | -102.6 |
| 20260502103329 | 9 | 135 | 1.6 | 4.8 | 0.00 | 0.00 | 0.00 | 38 | -102.6 |
| 20260502102829 | 9 | 141 | 1.6 | 4.8 | 0.00 | 0.00 | 0.00 | 37 | -102.6 |
| 20260502102313 | 9 | 176 | 3.2 | 8.0 | 0.00 | 0.00 | 0.00 | 38 | -102.6 |
| 20260502101822 | 9 | 143 | 6.4 | 8.0 | 0.00 | 0.00 | 0.00 | 38 | -102.6 |
| 20260502101344 | 9 | 143 | 4.8 | 9.7 | 0.00 | 0.00 | 0.00 | 39 | -102.6 |
| 20260502100832 | 9 | 146 | 3.2 | 9.7 | 0.00 | 0.00 | 0.00 | 39 | -102.6 |
| 20260502100316 | 9 | 139 | 4.8 | 9.7 | 0.00 | 0.00 | 0.00 | 39 | -102.6 |
| 20260502091337 | 9 | 146 | 3.2 | 4.8 | 0.00 | 0.00 | 0.00 | 40 | -102.6 |
| 20260502090816 | 9 | 131 | 1.6 | 4.8 | 0.00 | 0.00 | 0.00 | 40 | -102.6 |
| 20260502090341 | 9 | 150 | 3.2 | 6.4 | 0.00 | 0.00 | 0.00 | 41 | -102.6 |
| 20260502071317 | 8 | 129 | 3.2 | 6.4 | 0.00 | 0.00 | 0.00 | 50 | -102.6 |
| 20260502070818 | 8 | 84 | 3.2 | 6.4 | 0.00 | 0.00 | 0.00 | 50 | -102.6 |
| 20260502070350 | 8 | 70 | 1.6 | 3.2 | 0.00 | 0.00 | 0.00 | 51 | -102.6 |
| 20260502065836 | 9 | 139 | 1.6 | 3.2 | 0.00 | 0.00 | 0.00 | 51 | -102.6 |
| 20260502065320 | 10 | 351 | 0.0 | 3.2 | 0.00 | 0.00 | 0.00 | 48 | -102.6 |
| 20260502064849 | 10 | 299 | 0.0 | 3.2 | 0.00 | 0.00 | 0.00 | 44 | -102.6 |
| 20260502064331 | 11 | 309 | 1.6 | 8.0 | 0.00 | 0.00 | 0.00 | 39 | -102.6 |
| 20260502063812 | 11 | 90 | 3.2 | 12.9 | 0.00 | 0.00 | 0.00 | 38 | -102.6 |
| 20260502063315 | 11 | 150 | 8.0 | 12.9 | 0.00 | 0.00 | 0.00 | 37 | -102.6 |
| 20260502062824 | 11 | 143 | 6.4 | 11.3 | 0.00 | 0.00 | 0.00 | 36 | -102.6 |
| 20260502062354 | 11 | 145 | 6.4 | 12.9 | 0.00 | 0.00 | 0.00 | 36 | -102.6 |
| 20260502061815 | 11 | 143 | 6.4 | 12.9 | 0.00 | 0.00 | 0.00 | 36 | -102.6 |
| 20260502061345 | 11 | 155 | 3.2 | 8.0 | 0.00 | 0.00 | 0.00 | 36 | -102.6 |
| 20260502060842 | 11 | 156 | 4.8 | 9.7 | 0.00 | 0.00 | 0.00 | 36 | -102.6 |
| 20260502060331 | 11 | 141 | 4.8 | 11.3 | 0.00 | 0.00 | 0.00 | 36 | -102.6 |
| 20260502055816 | 11 | 147 | 4.8 | 11.3 | 0.00 | 0.00 | 0.00 | 37 | -102.6 |
| 20260502055319 | 11 | 121 | 4.8 | 9.7 | 0.00 | 0.00 | 0.00 | 37 | -102.6 |
| 20260502054827 | 11 | 137 | 4.8 | 11.3 | 0.00 | 0.00 | 0.00 | 37 | -102.7 |
| 20260502054330 | 11 | 150 | 8.0 | 11.3 | 0.00 | 0.00 | 0.00 | 37 | -102.7 |
| 20260502053811 | 11 | 127 | 6.4 | 11.3 | 0.00 | 0.00 | 0.00 | 37 | -102.7 |
| 20260502053321 | 11 | 139 | 8.0 | 11.3 | 0.00 | 0.00 | 0.00 | 36 | -102.7 |
| 20260502052822 | 11 | 135 | 4.8 | 12.9 | 0.00 | 0.00 | 0.00 | 36 | -102.7 |
| 20260502052333 | 12 | 131 | 9.7 | 12.9 | 0.00 | 0.00 | 0.00 | 35 | -102.7 |
| 20260502051834 | 12 | 136 | 8.0 | 12.9 | 0.00 | 0.00 | 0.00 | 35 | -102.7 |
| 20260502051324 | 12 | 128 | 8.0 | 12.9 | 0.00 | 0.00 | 0.00 | 35 | -102.7 |
| 20260502050825 | 12 | 144 | 8.0 | 11.3 | 0.00 | 0.00 | 0.00 | 35 | -102.7 |
| 20260502050328 | 12 | 148 | 8.0 | 12.9 | 0.00 | 0.00 | 0.00 | 35 | -102.7 |
| 20260502045814 | 12 | 141 | 9.7 | 12.9 | 0.00 | 0.00 | 0.00 | 35 | -102.7 |
| 20260502045317 | 12 | 157 | 8.0 | 11.3 | 0.00 | 0.00 | 0.00 | 35 | -102.7 |
| 20260502044826 | 12 | 148 | 6.4 | 8.0 | 0.00 | 0.00 | 0.00 | 34 | -102.7 |
| 20260502044328 | 12 | 144 | 6.4 | 8.0 | 0.00 | 0.00 | 0.00 | 34 | -102.7 |
| 20260502043857 | 12 | 158 | 6.4 | 8.0 | 0.00 | 0.00 | 0.00 | 33 | -102.7 |
| 20260502043320 | 12 | 162 | 6.4 | 11.3 | 0.00 | 0.00 | 0.00 | 33 | -102.6 |
| 20260502042821 | 13 | 142 | 6.4 | 11.3 | 0.00 | 0.00 | 0.00 | 33 | -102.7 |
| 20260502042331 | 13 | 158 | 3.2 | 8.0 | 0.00 | 0.00 | 0.00 | 32 | -102.7 |
| 20260502041812 | 13 | 167 | 4.8 | 6.4 | 0.00 | 0.00 | 0.00 | 32 | -102.7 |
| 20260502041315 | 13 | 155 | 4.8 | 6.4 | 0.00 | 0.00 | 0.00 | 32 | -102.7 |
| 20260502040824 | 13 | 144 | 3.2 | 6.4 | 0.00 | 0.00 | 0.00 | 32 | -102.7 |
| 20260502040327 | 13 | 156 | 1.6 | 4.8 | 0.00 | 0.00 | 0.00 | 32 | -102.7 |
| 20260502035835 | 13 | 155 | 3.2 | 4.8 | 0.00 | 0.00 | 0.00 | 31 | -102.7 |
| 20260502035318 | 13 | 147 | 3.2 | 6.4 | 0.00 | 0.00 | 0.00 | 30 | -102.7 |
| 20260502034819 | 13 | 124 | 1.6 | 6.4 | 0.00 | 0.00 | 0.00 | 30 | -102.7 |
| 20260502034330 | 13 | 133 | 0.0 | 8.0 | 0.00 | 0.00 | 0.00 | 32 | -102.7 |
| 20260502033811 | 13 | 147 | 4.8 | 8.0 | 0.00 | 0.00 | 0.00 | 31 | -102.7 |
| 20260502033314 | 14 | 146 | 3.2 | 4.8 | 0.00 | 0.00 | 0.00 | 31 | -102.7 |
| 20260502032821 | 14 | 164 | 3.2 | 4.8 | 0.00 | 0.00 | 0.00 | 30 | -102.7 |
| 20260502032324 | 15 | 160 | 1.6 | 6.4 | 0.00 | 0.00 | 0.00 | 29 | -102.7 |
| 20260502031853 | 15 | 143 | 1.6 | 11.3 | 0.00 | 0.00 | 0.00 | 29 | -102.7 |
| 20260502031315 | 15 | 82 | 3.2 | 8.0 | 0.00 | 0.00 | 0.00 | 29 | -102.7 |
| 20260502030815 | 15 | 68 | 3.2 | 6.4 | 0.00 | 0.00 | 0.00 | 29 | -102.7 |
| 20260502030325 | 15 | 127 | 4.8 | 6.4 | 0.00 | 0.00 | 0.00 | 29 | -102.7 |
| 20260502025823 | 15 | 129 | 3.2 | 6.4 | 0.00 | 0.00 | 0.00 | 29 | -102.8 |
| 20260502025334 | 15 | 126 | 1.6 | 6.4 | 0.00 | 0.00 | 0.00 | 28 | -102.8 |
| 20260502024814 | 15 | 133 | 3.2 | 9.7 | 0.00 | 0.00 | 0.00 | 29 | -102.8 |
| 20260502024345 | 15 | 153 | 6.4 | 9.7 | 0.00 | 0.00 | 0.00 | 28 | -102.8 |
| 20260502023824 | 15 | 124 | 4.8 | 8.0 | 0.00 | 0.00 | 0.00 | 28 | -102.8 |
| 20260502023315 | 15 | 138 | 1.6 | 4.8 | 0.00 | 0.00 | 0.00 | 28 | -102.8 |
| 20260502022835 | 15 | 122 | 1.6 | 4.8 | 0.00 | 0.00 | 0.00 | 28 | -102.8 |
| 20260502022323 | 16 | 131 | 1.6 | 4.8 | 0.00 | 0.00 | 0.00 | 29 | -102.8 |
| 20260502021831 | 16 | 141 | 1.6 | 4.8 | 0.00 | 0.00 | 0.00 | 27 | -102.8 |
| 20260502021313 | 16 | 69 | 0.0 | 4.8 | 0.00 | 0.00 | 0.00 | 25 | -102.8 |
| 20260502020815 | 16 | 127 | 1.6 | 4.8 | 0.00 | 0.00 | 0.00 | 25 | -102.8 |
| 20260502020317 | 16 | 60 | 0.0 | 4.8 | 0.00 | 0.00 | 0.00 | 24 | -102.8 |
| 20260502015825 | 16 | 60 | 3.2 | 4.8 | 0.00 | 0.00 | 0.00 | 25 | -102.8 |
| 20260502015328 | 16 | 79 | 1.6 | 3.2 | 0.00 | 0.00 | 0.00 | 29 | -102.8 |
| 20260502014812 | 16 | 287 | 0.0 | 1.6 | 0.00 | 0.00 | 0.00 | 29 | -102.8 |
| 20260502014315 | 16 | 286 | 0.0 | 3.2 | 0.00 | 0.00 | 0.00 | 27 | -102.8 |
| 20260502013815 | 16 | 8 | 0.0 | 3.2 | 0.00 | 0.00 | 0.00 | 25 | -102.8 |
| 20260502013326 | 17 | 305 | 1.6 | 4.8 | 0.00 | 0.00 | 0.00 | 26 | -102.8 |
| 20260502012826 | 17 | 323 | 3.2 | 4.8 | 0.00 | 0.00 | 0.00 | 27 | -102.8 |
| 20260502012335 | 17 | 290 | 1.6 | 3.2 | 0.00 | 0.00 | 0.00 | 25 | -102.8 |
| 20260502011816 | 17 | 349 | 0.0 | 6.4 | 0.00 | 0.00 | 0.00 | 25 | -102.8 |
| 20260502011319 | 17 | 300 | 1.6 | 6.4 | 0.00 | 0.00 | 0.00 | 26 | -102.8 |
| 20260502010826 | 17 | 296 | 3.2 | 8.0 | 0.00 | 0.00 | 0.00 | 26 | -102.8 |
| 20260502010329 | 17 | 293 | 1.6 | 8.0 | 0.00 | 0.00 | 0.00 | 27 | -102.8 |
| 20260502005837 | 17 | 286 | 1.6 | 4.8 | 0.00 | 0.00 | 0.00 | 26 | -102.8 |
| 20260502005321 | 17 | 302 | 3.2 | 4.8 | 0.00 | 0.00 | 0.00 | 26 | -102.8 |
| 20260502004820 | 17 | 307 | 1.6 | 9.7 | 0.00 | 0.00 | 0.00 | 27 | -102.8 |
| 20260502004350 | 17 | 296 | 3.2 | 9.7 | 0.00 | 0.00 | 0.00 | 26 | -102.8 |
| 20260502003837 | 17 | 321 | 3.2 | 8.0 | 0.00 | 0.00 | 0.00 | 26 | -102.8 |
| 20260502003347 | 17 | 295 | 3.2 | 4.8 | 0.00 | 0.00 | 0.00 | 28 | -102.8 |
| 20260502002847 | 17 | 153 | 1.6 | 4.8 | 0.00 | 0.00 | 0.00 | 29 | -102.8 |
| 20260502002336 | 17 | 296 | 1.6 | 6.4 | 0.00 | 0.00 | 0.00 | 25 | -102.8 |
| 20260502001817 | 17 | 32 | 3.2 | 8.0 | 0.00 | 0.00 | 0.00 | 24 | -102.8 |
| 20260502001327 | 17 | 278 | 3.2 | 8.0 | 0.00 | 0.00 | 0.00 | 25 | -102.8 |
| 20260502000827 | 17 | 314 | 0.0 | 8.0 | 0.00 | 0.00 | 0.00 | 27 | -102.8 |
| 20260502000318 | 17 | 324 | 1.6 | 11.3 | 0.00 | 0.00 | 0.00 | 26 | -102.8 |
| 20260501235817 | 18 | 6 | 4.8 | 11.3 | 0.00 | 0.00 | 0.00 | 24 | -102.8 |
| 20260501235348 | 18 | 300 | 4.8 | 9.7 | 0.00 | 0.00 | 0.00 | 25 | -102.8 |
| 20260501234827 | 18 | 311 | 1.6 | 8.0 | 0.00 | 0.00 | 0.00 | 26 | -102.8 |
| 20260501234334 | 18 | 302 | 3.2 | 8.0 | 0.00 | 0.00 | 0.00 | 25 | -102.8 |
| 20260501233814 | 17 | 323 | 0.0 | 4.8 | 0.00 | 0.00 | 0.00 | 27 | -102.8 |
| 20260501233317 | 17 | 117 | 1.6 | 6.4 | 0.00 | 0.00 | 0.00 | 25 | -102.8 |
| 20260501232825 | 17 | 299 | 3.2 | 6.4 | 0.00 | 0.00 | 0.00 | 26 | -102.8 |
| 20260501232328 | 17 | 297 | 1.6 | 8.0 | 0.00 | 0.00 | 0.00 | 27 | -102.8 |
| 20260501231836 | 17 | 297 | 3.2 | 8.0 | 0.00 | 0.00 | 0.00 | 28 | -102.8 |
| 20260501231340 | 17 | 55 | 4.8 | 9.7 | 0.00 | 0.00 | 0.00 | 26 | -102.8 |
| 20260501230820 | 17 | 292 | 1.6 | 11.3 | 0.00 | 0.00 | 0.00 | 24 | -102.8 |
| 20260501230350 | 17 | 327 | 3.2 | 11.3 | 0.00 | 0.00 | 0.00 | 25 | -102.8 |
| 20260501225824 | 17 | 39 | 3.2 | 8.0 | 0.00 | 0.00 | 0.00 | 26 | -102.8 |
| 20260501225327 | 17 | 293 | 1.6 | 11.3 | 0.00 | 0.00 | 0.00 | 24 | -102.8 |
| 20260501224836 | 18 | 293 | 4.8 | 11.3 | 0.00 | 0.00 | 0.00 | 25 | -102.8 |
| 20260501224338 | 18 | 316 | 4.8 | 8.0 | 0.00 | 0.00 | 0.00 | 25 | -102.7 |
| 20260501223846 | 18 | 323 | 3.2 | 8.0 | 0.00 | 0.00 | 0.00 | 25 | -102.7 |
| 20260501223327 | 18 | 323 | 3.2 | 8.0 | 0.00 | 0.00 | 0.00 | 26 | -102.7 |
| 20260501222836 | 18 | 307 | 3.2 | 6.4 | 0.00 | 0.00 | 0.00 | 27 | -102.7 |
| 20260501222339 | 18 | 311 | 1.6 | 6.4 | 0.00 | 0.00 | 0.00 | 29 | -102.7 |
| 20260501221847 | 17 | 102 | 1.6 | 8.0 | 0.00 | 0.00 | 0.00 | 24 | -102.7 |
| 20260501221328 | 18 | 24 | 3.2 | 8.0 | 0.00 | 0.00 | 0.00 | 24 | -102.7 |
| 20260501220837 | 18 | 297 | 1.6 | 8.0 | 0.00 | 0.00 | 0.00 | 27 | -102.7 |
| 20260501220319 | 18 | 219 | 1.6 | 9.7 | 0.00 | 0.00 | 0.00 | 25 | -102.7 |
| 20260501215828 | 18 | 9 | 3.2 | 9.7 | 0.00 | 0.00 | 0.00 | 25 | -102.7 |
| 20260501215329 | 18 | 319 | 3.2 | 8.0 | 0.00 | 0.00 | 0.00 | 26 | -102.7 |
| 20260501214829 | 18 | 298 | 4.8 | 8.0 | 0.00 | 0.00 | 0.00 | 25 | -102.7 |
| 20260501214340 | 18 | 1 | 1.6 | 17.7 | 0.00 | 0.00 | 0.00 | 28 | -102.7 |
| 20260501213818 | 18 | 323 | 8.0 | 17.7 | 0.00 | 0.00 | 0.00 | 26 | -102.7 |
| 20260501213329 | 18 | 6 | 1.6 | 6.4 | 0.00 | 0.00 | 0.00 | 27 | -102.7 |
| 20260501212811 | 18 | 315 | 1.6 | 6.4 | 0.00 | 0.00 | 0.00 | 27 | -102.7 |
| 20260501212314 | 18 | 324 | 0.0 | 4.8 | 0.00 | 0.00 | 0.00 | 30 | -102.7 |
| 20260501211843 | 17 | 283 | 1.6 | 8.0 | 0.00 | 0.00 | 0.00 | 24 | -102.7 |
| 20260501211353 | 18 | 293 | 3.2 | 12.9 | 0.00 | 0.00 | 0.00 | 25 | -102.7 |
| 20260501210813 | 18 | 293 | 1.6 | 8.0 | 0.00 | 0.00 | 0.00 | 27 | -102.7 |
| 20260501210316 | 18 | 75 | 3.2 | 8.0 | 0.00 | 0.00 | 0.00 | 24 | -102.6 |
| 20260501205826 | 18 | 224 | 3.2 | 8.0 | 0.00 | 0.00 | 0.00 | 27 | -102.7 |
| 20260501205357 | 18 | 148 | 1.6 | 6.4 | 0.00 | 0.00 | 0.00 | 25 | -102.7 |
| 20260501204818 | 18 | 333 | 3.2 | 9.7 | 0.00 | 0.00 | 0.00 | 26 | -102.6 |
| 20260501204321 | 18 | 134 | 1.6 | 9.7 | 0.00 | 0.00 | 0.00 | 30 | -102.6 |
| 20260501203345 | 19 | 93 | 1.6 | 6.4 | 0.00 | 0.00 | 0.00 | 28 | -102.6 |
| 20260501202834 | 19 | 161 | 3.2 | 6.4 | 0.00 | 0.00 | 0.00 | 26 | -102.7 |
| 20260501202316 | 19 | 156 | 1.6 | 6.4 | 0.00 | 0.00 | 0.00 | 31 | -102.6 |
| 20260501201837 | 19 | 200 | 1.6 | 9.7 | 0.00 | 0.00 | 0.00 | 30 | -102.6 |
| 20260501201347 | 18 | 142 | 1.6 | 9.7 | 0.00 | 0.00 | 0.00 | 27 | -102.6 |
| 20260501200835 | 18 | 154 | 3.2 | 8.0 | 0.00 | 0.00 | 0.00 | 30 | -102.6 |
| 20260501200320 | 18 | 340 | 1.6 | 11.3 | 0.00 | 0.00 | 0.00 | 29 | -102.6 |
| 20260501195819 | 18 | 200 | 1.6 | 4.8 | 0.00 | 0.00 | 0.00 | 27 | -102.6 |
| 20260501195328 | 17 | 337 | 1.6 | 4.8 | 0.00 | 0.00 | 0.00 | 29 | -102.6 |
| 20260501194830 | 17 | 330 | 1.6 | 4.8 | 0.00 | 0.00 | 0.00 | 27 | -102.6 |
| 20260501194312 | 17 | 293 | 3.2 | 4.8 | 0.00 | 0.00 | 0.00 | 24 | -102.6 |
| 20260501193820 | 18 | 113 | 3.2 | 6.4 | 0.00 | 0.00 | 0.00 | 26 | -102.6 |
| 20260501193323 | 18 | 156 | 1.6 | 6.4 | 0.00 | 0.00 | 0.00 | 24 | -102.6 |
| 20260501192831 | 18 | 162 | 1.6 | 4.8 | 0.00 | 0.00 | 0.00 | 24 | -102.6 |
| 20260501192334 | 17 | 158 | 1.6 | 8.0 | 0.00 | 0.00 | 0.00 | 31 | -102.6 |
| 20260501191814 | 17 | 143 | 1.6 | 8.0 | 0.00 | 0.00 | 0.00 | 27 | -102.6 |
| 20260501191345 | 17 | 175 | 4.8 | 8.0 | 0.00 | 0.00 | 0.00 | 24 | -102.6 |
| 20260501190832 | 17 | 168 | 0.0 | 6.4 | 0.00 | 0.00 | 0.00 | 27 | -102.6 |